TimeEDT,TemperatureF,Dew PointF,Humidity,Sea Level PressureIn,VisibilityMPH,Wind Direction,Wind SpeedMPH,Gust SpeedMPH,PrecipitationIn,Events,Conditions,WindDirDegrees,DateUTC
12:52 AM,39.9,24.1,53,30.35,10.0,NNW,3.5,-,N/A,,Partly Cloudy,340,2013-10-29 04:52:00
1:52 AM,37.0,24.1,59,30.36,10.0,NW,4.6,-,N/A,,Clear,320,2013-10-29 05:52:00
2:52 AM,36.0,24.1,62,30.37,10.0,NW,4.6,-,N/A,,Clear,320,2013-10-29 06:52:00
3:52 AM,34.0,24.1,67,30.37,10.0,NW,3.5,-,N/A,,Clear,310,2013-10-29 07:52:00
4:52 AM,33.1,24.1,70,30.38,10.0,Calm,Calm,-,N/A,,Mostly Cloudy,0,2013-10-29 08:52:00
5:52 AM,36.0,26.1,67,30.39,10.0,NW,4.6,-,N/A,,Overcast,320,2013-10-29 09:52:00
6:52 AM,37.0,27.0,67,30.40,10.0,NNW,4.6,-,N/A,,Overcast,330,2013-10-29 10:52:00
7:52 AM,35.1,26.1,70,30.41,10.0,Calm,Calm,-,N/A,,Mostly Cloudy,0,2013-10-29 11:52:00
8:52 AM,39.0,28.0,65,30.42,10.0,NW,4.6,-,N/A,,Clear,320,2013-10-29 12:52:00
9:52 AM,44.1,30.9,60,30.42,10.0,NNW,5.8,-,N/A,,Overcast,330,2013-10-29 13:52:00
10:52 AM,48.0,32.0,54,30.41,10.0,North,4.6,-,N/A,,Mostly Cloudy,350,2013-10-29 14:52:00
11:52 AM,50.0,30.9,48,30.40,10.0,Variable,3.5,-,N/A,,Scattered Clouds,0,2013-10-29 15:52:00
12:52 PM,51.1,34.0,52,30.38,10.0,NNE,10.4,-,N/A,,Mostly Cloudy,30,2013-10-29 16:52:00
1:52 PM,48.9,33.1,54,30.38,10.0,NE,6.9,-,N/A,,Mostly Cloudy,40,2013-10-29 17:52:00
2:52 PM,48.9,33.1,54,30.38,10.0,NNE,11.5,-,N/A,,Mostly Cloudy,30,2013-10-29 18:52:00
3:52 PM,48.0,33.1,56,30.39,10.0,NE,8.1,-,N/A,,Clear,50,2013-10-29 19:52:00
4:52 PM,46.0,33.1,61,30.39,10.0,ENE,5.8,-,N/A,,Clear,60,2013-10-29 20:52:00
5:52 PM,42.1,32.0,67,30.39,10.0,ENE,4.6,-,N/A,,Clear,70,2013-10-29 21:52:00
6:52 PM,37.0,30.9,79,30.39,10.0,East,4.6,-,N/A,,Clear,90,2013-10-29 22:52:00
7:52 PM,35.1,28.9,78,30.40,10.0,Calm,Calm,-,N/A,,Clear,0,2013-10-29 23:52:00
8:52 PM,32.0,28.9,88,30.40,10.0,Calm,Calm,-,N/A,,Clear,0,2013-10-30 00:52:00
9:52 PM,30.9,27.0,85,30.39,10.0,Calm,Calm,-,N/A,,Clear,0,2013-10-30 01:52:00
10:52 PM,32.0,28.0,85,30.39,10.0,Calm,Calm,-,N/A,,Clear,0,2013-10-30 02:52:00
11:52 PM,28.9,26.1,89,30.38,10.0,Calm,Calm,-,N/A,,Clear,0,2013-10-30 03:52:00